TimePST,TemperatureF,Dew PointF,Humidity,Sea Level PressureIn,VisibilityMPH,Wind Direction,Wind SpeedMPH,Gust SpeedMPH,PrecipitationIn,Events,Conditions,WindDirDegrees,DateUTC
12:53 AM,54.0,53.1,97,30.12,10.0,South,3.5,-,N/A,,Partly Cloudy,180,2013-11-07 08:53:00
1:53 AM,54.0,52.0,93,30.10,8.0,Calm,Calm,-,N/A,,Clear,0,2013-11-07 09:53:00
2:18 AM,54.0,52.0,93,30.08,8.0,Calm,Calm,-,N/A,,Partly Cloudy,0,2013-11-07 10:18:00
2:37 AM,53.1,52.0,96,30.08,5.0,Calm,Calm,-,N/A,,Mostly Cloudy,0,2013-11-07 10:37:00
2:53 AM,53.1,52.0,96,30.08,5.0,Calm,Calm,-,N/A,,Overcast,0,2013-11-07 10:53:00
3:08 AM,53.1,53.1,100,30.08,1.8,Calm,Calm,-,N/A,,Overcast,0,2013-11-07 11:08:00
3:43 AM,53.1,53.1,100,30.07,0.5,Calm,Calm,-,N/A,Fog,Fog,0,2013-11-07 11:43:00
3:53 AM,53.1,53.1,100,30.07,0.5,Calm,Calm,-,N/A,Fog,Fog,0,2013-11-07 11:53:00
4:53 AM,53.1,52.0,96,30.06,0.5,Calm,Calm,-,N/A,Fog,Fog,0,2013-11-07 12:53:00
5:12 AM,53.1,53.1,100,30.06,0.2,Calm,Calm,-,N/A,Fog,Fog,0,2013-11-07 13:12:00
5:51 AM,53.6,51.8,94,30.06,0.5,Calm,Calm,-,N/A,Fog,Fog,0,2013-11-07 13:51:00
5:53 AM,53.1,52.0,96,30.06,0.8,Calm,Calm,-,N/A,,Mist,0,2013-11-07 13:53:00
6:04 AM,53.1,52.0,96,30.06,2.0,SE,3.5,-,N/A,,Overcast,140,2013-11-07 14:04:00
6:20 AM,52.0,52.0,100,30.05,1.2,ESE,3.5,-,N/A,,Overcast,120,2013-11-07 14:20:00
6:30 AM,53.1,52.0,96,30.05,3.0,Calm,Calm,-,N/A,,Overcast,0,2013-11-07 14:30:00
6:53 AM,53.1,52.0,96,30.05,8.0,Variable,3.5,-,N/A,,Overcast,0,2013-11-07 14:53:00
7:04 AM,53.1,52.0,96,30.05,10.0,SSE,4.6,-,N/A,,Overcast,150,2013-11-07 15:04:00
7:53 AM,54.0,52.0,93,30.06,10.0,SE,3.5,-,N/A,,Mostly Cloudy,140,2013-11-07 15:53:00
8:53 AM,55.0,53.1,93,30.05,8.0,ESE,3.5,-,0.00,Rain,Light Rain,120,2013-11-07 16:53:00
9:53 AM,57.0,54.0,89,30.04,9.0,SSE,3.5,-,0.01,,Overcast,150,2013-11-07 17:53:00
10:49 AM,57.2,53.6,88,30.06,2.5,WSW,4.6,-,0.03,Rain,Rain,240,2013-11-07 18:49:00
10:50 AM,57.0,53.1,87,30.06,2.5,WSW,4.6,-,0.03,Rain,Rain,240,2013-11-07 18:50:00
11:00 AM,57.0,55.0,93,30.06,2.5,South,4.6,-,0.01,Rain,Rain,170,2013-11-07 19:00:00
11:10 AM,57.0,55.0,93,30.06,4.0,SSE,4.6,-,0.02,Rain,Light Rain,160,2013-11-07 19:10:00
11:53 AM,57.9,55.0,90,30.06,7.0,Calm,Calm,-,0.06,Rain,Light Rain,0,2013-11-07 19:53:00
12:10 PM,57.0,54.0,89,30.05,4.0,Calm,Calm,-,0.02,Rain,Light Rain,0,2013-11-07 20:10:00
12:18 PM,57.0,54.0,89,30.06,4.0,Variable,3.5,-,0.02,Rain,Light Rain,0,2013-11-07 20:18:00
12:51 PM,53.6,50.0,88,30.08,4.0,NNW,10.4,24.2,0.07,Rain,Light Rain,330,2013-11-07 20:51:00
12:53 PM,53.1,48.9,86,30.09,5.0,NW,12.7,24.2,0.07,Rain,Light Rain,310,2013-11-07 20:53:00
1:08 PM,53.1,48.9,86,30.09,9.0,NNW,8.1,20.7,0.00,Rain,Light Rain,330,2013-11-07 21:08:00
1:53 PM,52.0,48.0,86,30.13,6.0,North,6.9,-,0.02,Rain,Light Rain,350,2013-11-07 21:53:00
2:38 PM,52.0,48.0,86,30.14,10.0,Calm,Calm,-,0.01,Rain,Light Rain,0,2013-11-07 22:38:00
2:53 PM,52.0,46.0,80,30.15,7.0,Calm,Calm,-,0.02,Rain,Light Rain,0,2013-11-07 22:53:00
3:53 PM,52.0,45.0,77,30.16,10.0,Calm,Calm,-,0.01,,Overcast,0,2013-11-07 23:53:00
4:53 PM,50.0,46.0,86,30.17,10.0,SSE,3.5,-,N/A,,Partly Cloudy,160,2013-11-08 00:53:00
5:53 PM,48.0,45.0,89,30.17,10.0,SSE,3.5,-,N/A,,Clear,150,2013-11-08 01:53:00
6:53 PM,46.0,45.0,96,30.19,10.0,Calm,Calm,-,N/A,,Mostly Cloudy,0,2013-11-08 02:53:00
7:53 PM,46.0,44.1,93,30.20,10.0,South,4.6,-,N/A,,Mostly Cloudy,180,2013-11-08 03:53:00
8:53 PM,46.0,44.1,93,30.20,10.0,SSE,6.9,-,N/A,,Mostly Cloudy,160,2013-11-08 04:53:00
9:53 PM,46.9,45.0,93,30.20,10.0,Calm,Calm,-,N/A,,Overcast,0,2013-11-08 05:53:00
10:01 PM,46.9,44.1,90,30.19,10.0,Calm,Calm,-,N/A,,Overcast,0,2013-11-08 06:01:00
10:53 PM,45.0,44.1,97,30.20,10.0,Calm,Calm,-,N/A,,Partly Cloudy,0,2013-11-08 06:53:00
11:15 PM,44.1,43.0,96,30.20,7.0,Calm,Calm,-,N/A,,Scattered Clouds,0,2013-11-08 07:15:00
11:53 PM,45.0,43.0,93,30.21,7.0,Calm,Calm,-,N/A,,Overcast,0,2013-11-08 07:53:00